FW4250 Weather Reports


Display with metric or nautical units.
time (UTC)temp
F
wind
direction
speed
MPH
gust
MPH
rain 1hr
in
rain 24hr
in
rain mn
in
humidity
%
barometer
mb
20260903211646 78 207 5.0 13.0 0.00 0.03 0.03 58 986.4
20260903211045 78 219 6.0 13.0 0.00 0.03 0.03 58 986.5
20260903210545 78 221 5.0 9.0 0.00 0.03 0.03 59 986.4
20260903210049 78 155 6.0 11.0 0.00 0.03 0.03 59 986.6
20260903205544 78 148 5.0 11.0 0.00 0.03 0.03 59 986.5
20260903205044 78 195 5.0 10.0 0.00 0.03 0.03 60 986.6
20260903204545 79 150 4.0 10.0 0.00 0.03 0.03 60 986.7
20260903204042 78 215 6.0 10.0 0.00 0.03 0.03 60 986.7
20260903203545 78 185 4.0 10.0 0.00 0.03 0.03 60 986.7
20260903203044 78 168 5.0 10.0 0.00 0.03 0.03 61 986.7
20260903202541 78 146 5.0 9.0 0.00 0.03 0.03 61 986.7
20260903202041 77 182 4.0 9.0 0.00 0.03 0.03 63 986.7
20260903201541 77 215 4.0 9.0 0.00 0.03 0.03 62 986.8
20260903201040 77 188 5.0 15.0 0.00 0.03 0.03 62 986.8
20260903200540 78 144 6.0 11.0 0.00 0.03 0.03 62 986.8
20260903200040 77 188 4.0 11.0 0.00 0.03 0.03 62 986.9
20260903195539 77 194 5.0 11.0 0.00 0.03 0.03 62 986.9
20260903195039 77 197 5.0 13.0 0.00 0.03 0.03 63 987.0
20260903194547 77 171 5.0 13.0 0.00 0.03 0.03 62 987.1
20260903194036 77 202 3.0 12.0 0.00 0.03 0.03 63 987.2
20260903193536 78 163 6.0 12.0 0.00 0.03 0.03 61 987.1
20260903193042 78 169 6.0 11.0 0.00 0.03 0.03 60 987.1
20260903192536 78 140 6.0 11.0 0.00 0.03 0.03 61 987.0
20260903192039 78 159 5.0 10.0 0.00 0.03 0.03 60 987.1
20260903191543 78 183 4.0 16.0 0.00 0.03 0.03 58 987.2
20260903191034 78 216 5.0 16.0 0.00 0.03 0.03 57 987.2
20260903190532 78 152 6.0 10.0 0.00 0.03 0.03 57 987.4
20260903190037 78 209 5.0 8.0 0.00 0.03 0.03 56 987.4
20260903185531 78 182 3.0 13.0 0.00 0.03 0.03 57 987.3
20260903185130 77 177 7.0 13.0 0.00 0.03 0.03 57 987.4
20260903184529 77 219 4.0 10.0 0.00 0.03 0.03 57 987.4
20260903184028 77 169 3.0 9.0 0.00 0.03 0.03 59 987.6
20260903183527 76 186 5.0 10.0 0.00 0.03 0.03 59 987.6
20260903183026 76 223 5.0 10.0 0.00 0.03 0.03 60 987.6
20260903182525 76 182 3.0 11.0 0.01 0.03 0.03 62 987.6
20260903182023 75 236 2.0 7.0 0.01 0.03 0.03 64 987.6
20260903181535 75 180 3.0 7.0 0.01 0.03 0.03 62 987.7
20260903181021 75 183 4.0 10.0 0.01 0.03 0.03 63 987.7
20260903180520 76 190 5.0 10.0 0.01 0.03 0.03 63 987.7
20260903180019 76 181 4.0 9.0 0.01 0.03 0.03 64 987.6
20260903175517 74 130 3.0 9.0 0.01 0.03 0.03 64 987.6
20260903175016 74 174 1.0 6.0 0.01 0.03 0.03 64 987.7
20260903174515 74 174 4.0 6.0 0.01 0.03 0.03 64 987.6
20260903174014 73 182 1.0 6.0 0.01 0.03 0.03 65 987.7
20260903173512 73 178 2.0 10.0 0.01 0.03 0.03 66 987.7
20260903173011 73 169 4.0 7.0 0.01 0.03 0.03 66 987.8
20260903172511 73 163 2.0 7.0 0.00 0.02 0.02 68 987.7
20260903172008 72 167 1.0 8.0 0.00 0.02 0.02 70 987.7
20260903171519 71 182 2.0 5.0 0.00 0.02 0.02 72 987.7
20260903171005 70 181 1.0 5.0 0.00 0.02 0.02 73 987.6
20260903170504 70 138 2.0 7.0 0.00 0.02 0.02 75 987.8
20260903170003 69 138 2.0 7.0 0.00 0.02 0.02 81 987.8
20260903165502 67 196 0.0 3.0 0.00 0.02 0.02 87 987.6
20260903165103 66 196 1.0 5.0 0.00 0.02 0.02 90 987.7
20260903164600 65 196 1.0 5.0 0.01 0.02 0.02 91 987.8
20260903164056 65 196 1.0 7.0 0.01 0.02 0.02 91 987.8
20260903163554 64 180 3.0 7.0 0.02 0.02 0.02 92 987.8
20260903163109 63 204 3.0 7.0 0.02 0.02 0.02 92 987.7
20260903162552 63 216 3.0 5.0 0.02 0.02 0.02 93 987.8
20260903162051 62 202 1.0 4.0 0.02 0.02 0.02 92 987.8
20260903161550 62 337 1.0 4.0 0.02 0.02 0.02 93 987.7
20260903161048 62 342 2.0 4.0 0.02 0.02 0.02 93 987.7
20260903160548 61 340 1.0 3.0 0.02 0.02 0.02 93 987.8
20260903160045 61 355 0.0 2.0 0.02 0.02 0.02 94 987.8
20260903155545 61 355 1.0 3.0 0.02 0.02 0.02 93 987.9
20260903155043 61 355 1.0 3.0 0.02 0.02 0.02 93 987.9
20260903154541 61 355 0.0 3.0 0.01 0.01 0.01 93 987.9
20260903154040 61 355 1.0 3.0 0.01 0.01 0.01 92 987.9
20260903153538 61 355 1.0 2.0 0.00 0.00 0.00 92 987.9
20260903153037 61 355 0.0 2.0 0.00 0.00 0.00 92 987.9
20260903152538 61 355 0.0 2.0 0.00 0.00 0.00 88 987.9
20260903152036 61 351 0.0 3.0 0.00 0.00 0.00 86 987.9
20260903151536 61 351 1.0 3.0 0.00 0.00 0.00 84 987.9
20260903151036 61 350 0.0 3.0 0.00 0.00 0.00 82 987.9
20260903150534 61 350 0.0 0.0 0.00 0.00 0.00 83 988.0
20260903150047 60 350 0.0 0.0 0.00 0.00 0.00 85 987.9
20260903145534 59 350 0.0 0.0 0.00 0.00 0.00 86 987.8
20260903145032 59 350 0.0 0.0 0.00 0.00 0.00 87 987.9
20260903144531 58 350 0.0 0.0 0.00 0.00 0.00 88 987.9
20260903144030 57 350 0.0 0.0 0.00 0.00 0.00 88 987.9
20260903143529 57 350 0.0 0.0 0.00 0.00 0.00 88 987.9
20260903143035 57 350 0.0 0.0 0.00 0.00 0.00 89 987.8
20260903142531 56 350 0.0 0.0 0.00 0.00 0.00 89 987.7
20260903142028 56 350 0.0 0.0 0.00 0.00 0.00 89 987.7
20260903141529 56 350 0.0 0.0 0.00 0.00 0.00 89 987.6
20260903141028 56 350 0.0 0.0 0.00 0.00 0.00 89 987.7
20260903140527 56 350 0.0 0.0 0.00 0.00 0.00 89 987.6
20260903140026 56 350 0.0 0.0 0.00 0.00 0.00 90 987.6
20260903135525 56 350 0.0 0.0 0.00 0.00 0.00 90 987.5
20260903135025 56 350 0.0 0.0 0.00 0.00 0.00 90 987.5
20260903134524 55 350 0.0 0.0 0.00 0.00 0.00 90 987.6
20260903134024 55 350 0.0 0.0 0.00 0.00 0.00 90 987.4
20260903133524 56 350 0.0 0.0 0.00 0.00 0.00 89 987.5
20260903133026 56 350 0.0 0.0 0.00 0.00 0.00 89 987.5
20260903132522 56 350 0.0 0.0 0.00 0.00 0.00 89 987.5
20260903132022 56 350 0.0 0.0 0.00 0.00 0.00 88 987.5
20260903131522 56 350 0.0 0.0 0.00 0.00 0.00 88 987.4
20260903131021 56 350 0.0 0.0 0.00 0.00 0.00 88 987.5
20260903130521 56 350 0.0 0.0 0.00 0.00 0.00 87 987.5
20260903130020 56 350 0.0 0.0 0.00 0.00 0.00 87 987.5
20260903125520 56 350 0.0 0.0 0.00 0.00 0.00 86 987.4
20260903125024 56 350 0.0 0.0 0.00 0.00 0.00 86 987.4
20260903124620 56 350 0.0 0.0 0.00 0.00 0.00 86 987.4
20260903124020 56 350 0.0 0.0 0.00 0.00 0.00 86 987.5
20260903123518 56 350 0.0 0.0 0.00 0.00 0.00 85 987.4
20260903123026 56 350 0.0 0.0 0.00 0.00 0.00 85 987.5
20260903122517 56 350 0.0 0.0 0.00 0.00 0.00 86 987.4
20260903122019 56 350 0.0 0.0 0.00 0.00 0.00 86 987.4
20260903121516 56 350 0.0 0.0 0.00 0.00 0.00 86 987.5
20260903121016 57 350 0.0 0.0 0.00 0.00 0.00 86 987.5
20260903120517 57 350 0.0 0.0 0.00 0.00 0.00 87 987.4
20260903120016 57 350 0.0 0.0 0.00 0.00 0.00 87 987.5
20260903115515 57 350 0.0 0.0 0.00 0.00 0.00 88 987.5
20260903115015 57 350 0.0 0.0 0.00 0.00 0.00 88 987.6
20260903114514 57 350 0.0 0.0 0.00 0.00 0.00 89 987.5
20260903114014 57 350 0.0 0.0 0.00 0.00 0.00 89 987.5
20260903113516 57 350 0.0 0.0 0.00 0.00 0.00 89 987.5
20260903113014 57 350 0.0 0.0 0.00 0.00 0.00 89 987.5
20260903112512 57 350 0.0 0.0 0.00 0.00 0.00 88 987.6
20260903112012 57 350 0.0 0.0 0.00 0.00 0.00 89 987.6
20260903111511 57 350 0.0 0.0 0.00 0.00 0.00 89 987.6
20260903111012 57 350 0.0 2.0 0.00 0.00 0.00 89 987.6
20260903110511 57 350 0.0 2.0 0.00 0.00 0.00 89 987.7
20260903110011 57 181 0.0 0.0 0.00 0.00 0.00 89 987.7
20260903105511 57 181 0.0 0.0 0.00 0.00 0.00 89 987.6
20260903105009 57 181 0.0 0.0 0.00 0.00 0.00 89 987.6
20260903104509 57 181 0.0 0.0 0.00 0.00 0.00 89 987.7
20260903104010 57 181 0.0 0.0 0.00 0.00 0.00 89 987.7
20260903103511 58 181 0.0 0.0 0.00 0.00 0.00 89 987.8
20260903103007 58 181 0.0 0.0 0.00 0.00 0.00 89 987.8
20260903102506 58 181 0.0 0.0 0.00 0.00 0.00 89 987.9
20260903102008 58 181 0.0 0.0 0.00 0.00 0.00 88 987.8
20260903101505 58 181 0.0 0.0 0.00 0.00 0.00 88 987.9
20260903101005 58 181 0.0 0.0 0.00 0.00 0.00 88 987.9
20260903100505 58 181 0.0 0.0 0.00 0.00 0.00 88 987.9
20260903100013 58 181 0.0 0.0 0.00 0.00 0.00 87 987.9
20260903095503 58 181 0.0 0.0 0.00 0.00 0.00 86 987.9
20260903095003 58 181 0.0 0.0 0.00 0.00 0.00 86 988.0
20260903094502 59 181 0.0 0.0 0.00 0.00 0.00 85 988.0
20260903094004 59 181 0.0 0.0 0.00 0.00 0.00 85 988.0
20260903093502 59 181 0.0 0.0 0.00 0.00 0.00 85 988.1
20260903093001 59 181 0.0 0.0 0.00 0.00 0.00 86 988.1
20260903092501 59 181 0.0 0.0 0.00 0.00 0.00 86 988.1
20260903092001 59 181 0.0 0.0 0.00 0.00 0.00 86 988.1
20260903091601 59 181 0.0 0.0 0.00 0.00 0.00 86 988.1
20260903091103 59 181 0.0 0.0 0.00 0.00 0.00 87 988.1
20260903090600 59 181 0.0 0.0 0.00 0.00 0.00 87 988.3
20260903090058 59 181 0.0 0.0 0.00 0.00 0.00 87 988.4
20260903085557 59 181 0.0 0.0 0.00 0.00 0.00 86 988.4
20260903085056 59 181 0.0 0.0 0.00 0.00 0.00 85 988.5
20260903084555 60 181 0.0 0.0 0.00 0.00 0.00 85 988.4
20260903084053 60 181 0.0 0.0 0.00 0.00 0.00 84 988.5
20260903083553 60 181 0.0 0.0 0.00 0.00 0.00 83 988.5
20260903083056 61 181 0.0 0.0 0.00 0.00 0.00 83 988.5
20260903082551 61 181 0.0 0.0 0.00 0.00 0.00 83 988.6
20260903082050 61 181 0.0 0.0 0.00 0.00 0.00 83 988.6
20260903081553 61 181 0.0 0.0 0.00 0.00 0.00 82 988.6
20260903081052 61 181 0.0 0.0 0.00 0.00 0.00 83 988.6
20260903080549 61 181 0.0 0.0 0.00 0.00 0.00 83 988.6
20260903080049 61 181 0.0 0.0 0.00 0.00 0.00 82 988.6
20260903075550 61 181 0.0 0.0 0.00 0.00 0.00 81 988.6
20260903075052 61 181 0.0 0.0 0.00 0.00 0.00 81 988.5
20260903074551 61 181 0.0 0.0 0.00 0.00 0.00 82 988.6
20260903074047 61 181 0.0 0.0 0.00 0.00 0.00 83 988.5
20260903073548 61 181 0.0 0.0 0.00 0.00 0.00 84 988.5
20260903073049 61 181 0.0 0.0 0.00 0.00 0.00 85 988.4
20260903072545 61 181 0.0 0.0 0.00 0.00 0.00 85 988.4
20260903072044 61 181 0.0 0.0 0.00 0.00 0.00 84 988.4
20260903071600 61 181 0.0 0.0 0.00 0.00 0.00 84 988.4
20260903071043 61 181 0.0 0.0 0.00 0.00 0.00 84 988.4
20260903070543 61 181 0.0 0.0 0.00 0.00 0.00 84 988.4
20260903070057 61 181 0.0 0.0 0.00 0.00 0.00 84 988.3
20260903065542 62 181 0.0 0.0 0.00 0.00 0.00 84 988.3
20260903065042 62 181 0.0 0.0 0.00 0.00 0.00 84 988.4
20260903064542 62 181 0.0 0.0 0.00 0.00 0.00 84 988.3
20260903064041 62 181 0.0 0.0 0.00 0.00 0.00 83 988.3
20260903063540 62 181 0.0 0.0 0.00 0.00 0.00 83 988.2
20260903063042 62 181 0.0 0.0 0.00 0.00 0.00 83 988.1
20260903062541 62 181 0.0 0.0 0.00 0.00 0.00 83 988.3
20260903062041 62 181 0.0 0.0 0.00 0.00 0.00 83 988.3
20260903061543 62 181 0.0 0.0 0.00 0.00 0.00 83 988.3
20260903061040 62 181 0.0 0.0 0.00 0.00 0.00 83 988.2
20260903060540 62 181 0.0 0.0 0.00 0.00 0.00 83 988.3
20260903060040 63 181 0.0 0.0 0.00 0.00 0.00 84 988.3
20260903055539 63 181 0.0 0.0 0.00 0.00 0.00 85 988.3
20260903055039 63 181 0.0 0.0 0.00 0.00 0.00 84 988.3
20260903054641 63 181 0.0 0.0 0.00 0.00 0.00 84 988.3
20260903054039 63 181 0.0 0.0 0.00 0.00 0.00 85 988.3
20260903053538 63 181 0.0 0.0 0.00 0.00 0.00 85 988.2
20260903053038 63 181 0.0 0.0 0.00 0.00 0.00 84 988.3
20260903052539 63 181 0.0 0.0 0.00 0.00 0.00 83 988.3
20260903052039 64 181 0.0 0.0 0.00 0.00 0.00 83 988.3
20260903051543 64 181 0.0 0.0 0.00 0.00 0.00 83 988.3
20260903051040 64 181 0.0 0.0 0.00 0.00 0.00 82 988.2
20260903050538 64 181 0.0 0.0 0.00 0.00 0.00 82 988.3
20260903050042 64 181 0.0 0.0 0.00 0.00 0.00 81 988.4
20260903045538 64 181 0.0 0.0 0.00 0.00 0.00 81 988.4
20260903045037 65 181 0.0 0.0 0.00 0.00 0.00 82 988.4
20260903044548 65 181 0.0 0.0 0.00 0.00 0.00 82 988.4
20260903044037 65 181 0.0 0.0 0.00 0.00 0.00 81 988.3
20260903043536 65 181 0.0 0.0 0.00 0.00 0.00 82 988.4
20260903043039 65 181 0.0 0.0 0.00 0.00 0.00 81 988.3
20260903042536 65 181 0.0 0.0 0.00 0.00 0.00 80 988.3
20260903042036 66 181 0.0 0.0 0.00 0.00 0.00 79 988.4
20260903041537 66 181 0.0 0.0 0.00 0.00 0.00 79 988.3
20260903041037 66 181 0.0 2.0 0.00 0.00 0.00 80 988.3
20260903040536 66 181 0.0 2.0 0.00 0.00 0.00 79 988.4
20260903040048 66 181 0.0 2.0 0.00 0.00 0.00 79 988.4
20260903035535 67 181 1.0 2.0 0.00 0.00 0.00 78 988.3
20260903035036 67 181 0.0 0.0 0.00 0.00 0.00 77 988.1
20260903034536 67 181 0.0 0.0 0.00 0.00 0.00 77 988.1
20260903034035 67 181 0.0 0.0 0.00 0.00 0.00 76 988.0
20260903033534 67 181 0.0 2.0 0.00 0.00 0.00 75 987.9
20260903033034 68 181 0.0 2.0 0.00 0.00 0.00 75 987.9
20260903032535 68 181 0.0 2.0 0.00 0.00 0.00 74 987.8
20260903032034 68 181 0.0 2.0 0.00 0.00 0.00 74 987.8
20260903031538 68 181 0.0 2.0 0.00 0.00 0.00 73 987.7
20260903031035 69 181 0.0 2.0 0.00 0.00 0.00 71 987.7
20260903030535 69 181 0.0 2.0 0.00 0.00 0.00 71 987.7
20260903030034 69 181 0.0 2.0 0.00 0.00 0.00 70 987.6
20260903025535 70 181 0.0 3.0 0.00 0.00 0.00 69 987.6
20260903025033 70 181 2.0 3.0 0.00 0.00 0.00 67 987.6
20260903024533 70 180 0.0 0.0 0.00 0.00 0.00 64 987.6
20260903024033 71 180 0.0 0.0 0.00 0.00 0.00 62 987.6
20260903023532 71 180 0.0 0.0 0.00 0.00 0.00 61 987.6
20260903023039 72 180 0.0 0.0 0.00 0.00 0.00 62 987.6
20260903022533 72 180 0.0 0.0 0.00 0.00 0.00 61 987.5
20260903022032 72 180 0.0 0.0 0.00 0.00 0.00 60 987.6
20260903021532 73 180 0.0 0.0 0.00 0.00 0.00 58 987.6
20260903021031 73 180 0.0 0.0 0.00 0.00 0.00 57 987.6
20260903020535 74 180 0.0 0.0 0.00 0.00 0.00 56 987.6
20260903020035 74 180 0.0 0.0 0.00 0.00 0.00 56 987.6
20260903015531 74 180 0.0 2.0 0.00 0.00 0.00 55 987.6
20260903015032 74 180 1.0 3.0 0.00 0.00 0.00 54 987.6
20260903014531 75 180 1.0 5.0 0.00 0.00 0.00 54 987.6
20260903014034 75 181 2.0 5.0 0.00 0.00 0.00 53 987.6
20260903013530 75 181 1.0 4.0 0.00 0.00 0.00 53 987.7
20260903013030 75 181 2.0 4.0 0.00 0.00 0.00 53 987.7
20260903012529 75 181 1.0 5.0 0.00 0.00 0.00 53 987.7
20260903012029 75 181 2.0 5.0 0.00 0.00 0.00 52 987.7
20260903011529 75 181 1.0 7.0 0.00 0.00 0.00 52 987.7
20260903011032 75 171 4.0 8.0 0.00 0.00 0.00 52 987.6
20260903010528 76 194 4.0 7.0 0.00 0.00 0.00 52 987.6
20260903010034 75 222 4.0 8.0 0.00 0.00 0.00 52 987.7
20260903005528 75 221 4.0 8.0 0.00 0.00 0.00 52 987.7
20260903005028 75 207 3.0 8.0 0.00 0.00 0.00 52 987.7
20260903004538 76 201 3.0 9.0 0.00 0.00 0.00 51 987.7
20260903004028 75 177 4.0 11.0 0.00 0.00 0.00 52 987.7
20260903003526 75 185 5.0 11.0 0.00 0.00 0.00 52 987.7
20260903003027 75 181 5.0 12.0 0.00 0.00 0.00 52 987.8
20260903002530 75 213 5.0 12.0 0.00 0.00 0.00 52 987.8
20260903002026 75 165 6.0 12.0 0.00 0.00 0.00 52 987.8
20260903001528 75 205 6.0 16.0 0.00 0.00 0.00 52 987.9
20260903001025 75 202 6.0 16.0 0.00 0.00 0.00 51 987.8
20260903000525 76 210 7.0 11.0 0.00 0.00 0.00 50 987.8
20260903000040 76 190 6.0 15.0 0.00 0.00 0.00 49 987.8
20260902235525 76 175 8.0 16.0 0.00 0.00 0.00 49 987.8
20260902235024 76 187 8.0 17.0 0.00 0.00 0.00 49 987.8
20260902234530 76 187 7.0 13.0 0.00 0.00 0.00 49 988.0
20260902234024 77 203 7.0 15.0 0.00 0.00 0.00 48 988.0
20260902233523 77 192 8.0 15.0 0.00 0.00 0.00 48 988.0
20260902233024 77 209 6.0 10.0 0.00 0.00 0.00 48 987.9
20260902232526 78 163 7.0 15.0 0.00 0.00 0.00 49 988.0
20260902232022 78 196 6.0 11.0 0.00 0.00 0.00 50 987.9
20260902231522 78 185 6.0 17.0 0.00 0.00 0.00 51 987.9
20260902231022 78 205 8.0 17.0 0.00 0.00 0.00 50 988.0
20260902230520 79 184 6.0 10.0 0.00 0.00 0.00 50 988.0
20260902230022 79 202 6.0 12.0 0.00 0.00 0.00 47 988.1
20260902225520 79 181 6.0 14.0 0.00 0.00 0.00 45 988.1
20260902225022 79 205 7.0 13.0 0.00 0.00 0.00 46 988.1
20260902224520 79 205 8.0 13.0 0.00 0.00 0.00 48 988.2
20260902224018 80 213 6.0 11.0 0.00 0.00 0.00 45 988.1
20260902223519 81 209 6.0 10.0 0.00 0.00 0.00 40 988.2
20260902223018 81 180 6.0 13.0 0.00 0.00 0.00 40 988.4
20260902222518 81 176 6.0 13.0 0.00 0.00 0.00 40 988.3
20260902222018 81 173 7.0 14.0 0.00 0.00 0.00 41 988.3
20260902221518 81 175 6.0 14.0 0.00 0.00 0.00 42 988.3
20260902221020 81 175 6.0 14.0 0.00 0.00 0.00 46 988.3
20260902220515 81 207 6.0 11.0 0.00 0.00 0.00 46 988.5
20260902220014 81 192 5.0 10.0 0.00 0.00 0.00 49 988.5
20260902215514 81 184 6.0 11.0 0.00 0.00 0.00 44 988.6
20260902215013 80 194 5.0 10.0 0.00 0.00 0.00 46 988.6
20260902214522 80 194 6.0 10.0 0.00 0.00 0.00 48 988.7
20260902214012 80 148 7.0 10.0 0.00 0.00 0.00 47 988.7
20260902213514 80 201 5.0 10.0 0.00 0.00 0.00 50 988.8
20260902213011 80 188 6.0 9.0 0.00 0.00 0.00 51 988.8
20260902212511 79 171 5.0 10.0 0.00 0.00 0.00 52 988.9
20260902212014 80 185 7.0 10.0 0.00 0.00 0.00 50 988.9